星链-33741 (STARLINK-33741)

导读

STARLINK-33741是美国SpaceX星链星座的一员,于2025年3月26日成功发射。星链项目旨在构建全球卫星互联网星座,为全球偏远地区、海洋空域等提供低延迟高速网络服务。作为低轨卫星互联网系统的最新成员,它将进一步补全星链星座的全球覆盖网络,提升星座整体服务容量与稳定性。

基本信息
目录编号:
63365
目录名称:
STARLINK-33741
国际标识:
2025-063C
轨道中心:
EARTH
卫星名称:
星链-33741
卫星全名:
星链-33741 (STARLINK-33741)
卫星状态:
在轨 (已飞行527 天)
发射日期:
2025-03-26 UTC
国别 :
美国 (US)
星等 :
--
轨道信息
数据来源 国际轨道数据
星历时间: 2026-09-04T00:14:50+0800
15小时前
查看轨道信息
半长轴: 6840.814km
偏心率: 0.0001078
轨道倾角: 53.160°
近地点辐角 72.095°
升交点赤经 300.512°
平近点角 288.017°
近地点: 461.939km
远地点: 463.415km
周期: 93.847分钟
每日圈数: 15.34409
详细信息
固有亮度:
5
最大亮度:
2.5
卫星平台:
Starlink V1.0
覆盖范围:
全球
运营商:
太空探索技术公司
运营商所在国:
美国
制造商(研发单位):
太空探索技术公司
制造商所在国:
美国
使用方式:
暂无
卫星简介
Starlink 计划是 SpaceX 推出的全球卫星互联网项目,通过发射低轨道卫星,为全球尤其是偏远地区提供高速、低延迟的互联网服务。自 2019 年起,Starlink 已部署数千颗卫星,旨在缩小全球数字鸿沟,推动互联网普及。该项目还为军事、航空等行业提供通信支持,带来广泛经济效益。
2D轨道图
3D轨道图
轨道高度分析图
轨道倾角分析图
轨道综合分析图
查看轨道综合分析图
交会数据列表
事件ID 空间交会对象 最接近时刻(TCA) 交会距离 交会风险概率(CRP) 交会风险指数(CRI) 操作
CDM_260906-050003-279106-336521
SEEDS (32791)
2026-09-06T
05:00:39+0000
1.853 km
极远距离
2.225302E-6 低风险 0.42